STARLINK-1132, 45044

Orbit data source: Space-Track

STARLINK-1132, 45044 is a payload satellite owned by SpaceX/Seattle (US) in LEO that was launched on Wed, 29 Jan 2020 UTC via an FALCON 9 launch vehicle from the Air Force Eastern Test Range (AFETR). Payload-class satellites include a variety of spacecraft equipped with specific instruments for various scientific and technological missions. These include communications satellites like Starlink; space stations such as the ISS; scientific satellites like the Hubble; Earth observation satellites from companies like Planet Labs, Umbra, and HawkEye 360; GPS; miniature CubeSats for education and research; and military/defense satellites.

Loading next visibility...
Identifier
45044, 2020-006A
Orbit
LEO
Last TLE update
18 hours ago
Origin
Manufacturer
SpaceX/Seattle
Mission
Operational Commercial Communications
Bus & Motor
STARLINK, Unknown motor
Mass
260 kg wet, ~248 kg dry
Launch date (UTC)
2020-01-29 (5 years ago)
Launch vehicle
FALCON 9
Launch site
Air Force Eastern Test Range (AFETR)
Object type
Payload
Rocket body
Debris
Shape & HBR
Box + 1 Pan, 8.86 m
Radar Cross Section
13.562 m², Large (>1 m²)

Expand to show TLE details & history

TLE from 18 hours ago
0 STARLINK-1132
1 45044U 20006A   25132.83646708  .00001519  00000-0  12086-3 0  9996
2 45044  53.0536 177.1994 0001155  88.6522 271.4599 15.06402663291396
Epoch: 2025-05-12T20:04Z
Definitive object data (Epoch: 2025-05-12T20:04:30.755Z)
Latitude
-0.00005°
Longitude
5.22738°
Altitude
548.062 km
Speed
7.589 km/s
True Right ascension
11h 48m 47s
True Declination
0° 00' 00"
Sunlit
Object was in full shadow at TLE epoch
Visualization TLE readout
Latitude
-28.36686°
Longitude
-154.40844°
Altitude
556.16 km
Speed
7.583 km/s
Apparent Right ascension
04h 42m 55s
Apparent Declination
-65° 39' 53"
Sunlit
Object is in daylight
Visualization observer readout
Local Sidereal Time
22:58:43
Azimuth
150.174° SSE
Elevation
-34.255°
Doppler factor
1
Orbital elements
Apogee altitude
548.274 km
Perigee altitude
546.674 km
Semi-major axis
6,925.611 km
Eccentricity
0.0001155
Inclination
53.0536°
RAAN
177.1994°
Arg. of periapsis
88.6522°
True anomaly
271.44667°
Mean anomaly
271.4599°
Eccentric anomaly
271.45328°
Mean motion
3.76579 °/min
BSTAR
0.00012086
Orbital period
95.6 mins
Loading maneuver chart data...
Loading SW <> Apogee altitude chart data...
Loading historical data...
Loading historical data...
Loading historical data...
Loading historical data...
Loading historical data...
Loading historical data...
Loading historical data...

STARLINK-1132 Visibility forecast

Observer location: undefined°, undefined°

Span
Click to sort rows by Start time (UTC) header in descending order
Start Az.
Max El. time (UTC)
Max El. Az.
Max El.
End time (UTC)
End Az.
4 mins2025-05-14 04:04:47.104Z154.103° SSE2025-05-14 04:06:47.104Z120.438° SE15.437°2025-05-14 04:08:47.104Z90.113° ESE
6 mins2025-05-14 05:42:47.104Z241.419° WSW2025-05-14 05:45:47.104Z348.849° N42.56°2025-05-14 05:48:47.104Z44.434° NE
4 mins2025-05-14 07:23:47.104Z308.141° NW2025-05-14 07:25:47.104Z343.591° N17.675°2025-05-14 07:27:47.104Z17.658° NNE
4 mins2025-05-14 10:45:47.104Z352.819° N2025-05-14 10:46:47.104Z13.537° NNE21.842°2025-05-14 10:49:47.104Z71.774° E
6 mins2025-05-14 12:24:47.104Z301.055° NW2025-05-14 12:26:47.104Z255.603° W42.459°2025-05-14 12:30:47.104Z140.068° SSE
|